<?xml version="1.0" encoding="UTF-8" standalone="no" ?>
<gpx xmlns="http://www.topografix.com/GPX/1/1" xmlns:xsi="http://www.w3.org/2001/XMLSchema-instance" xsi:schemaLocation="http://www.topografix.com/GPX/1/1 http://www.topografix.com/GPX/1/1/gpx.xsd" version="1.1" creator="VisuGPX - https://www.visugpx.com">
  <metadata>
    <name>Joue_VioreauProvostiere_13-24km</name>
    <desc><![CDATA[gnerando idor:6087651_6502859_12533576]]></desc>
  </metadata>
  <trk>
    <name><![CDATA[Joué_VioreauProvostière_23.8km-6087651]]></name>
    <extensions>
      <line xmlns="http://www.topografix.com/GPX/gpx_style/0/2">
        <color>FF0000</color>
        <width>4</width>
      </line>
    </extensions>
    <trkseg>
      <trkpt lat="47.51814" lon="-1.43034">
        <ele>34</ele>
        <time>2023-11-02T10:48:46Z</time>
      </trkpt>
      <trkpt lat="47.51737" lon="-1.43049">
        <ele>34</ele>
        <time>2023-11-02T10:50:30Z</time>
      </trkpt>
      <trkpt lat="47.51758" lon="-1.42869">
        <ele>37</ele>
        <time>2023-11-02T10:53:14Z</time>
      </trkpt>
      <trkpt lat="47.51856" lon="-1.42852">
        <ele>36</ele>
        <time>2023-11-02T10:55:26Z</time>
      </trkpt>
      <trkpt lat="47.51897" lon="-1.42783">
        <ele>36</ele>
        <time>2023-11-02T10:56:49Z</time>
      </trkpt>
      <trkpt lat="47.51981" lon="-1.42114">
        <ele>34</ele>
        <time>2023-11-02T11:07:02Z</time>
      </trkpt>
      <trkpt lat="47.52082" lon="-1.42075">
        <ele>33</ele>
        <time>2023-11-02T11:09:21Z</time>
      </trkpt>
      <trkpt lat="47.52146" lon="-1.41749">
        <ele>33</ele>
        <time>2023-11-02T11:14:27Z</time>
      </trkpt>
      <trkpt lat="47.52149" lon="-1.41457">
        <ele>34</ele>
        <time>2023-11-02T11:18:50Z</time>
      </trkpt>
      <trkpt lat="47.52198" lon="-1.41316">
        <ele>34</ele>
        <time>2023-11-02T11:21:13Z</time>
      </trkpt>
      <trkpt lat="47.52273" lon="-1.4126">
        <ele>34</ele>
        <time>2023-11-02T11:23:05Z</time>
      </trkpt>
      <trkpt lat="47.52328" lon="-1.4105">
        <ele>34</ele>
        <time>2023-11-02T11:26:28Z</time>
      </trkpt>
      <trkpt lat="47.52418" lon="-1.41011">
        <ele>33</ele>
        <time>2023-11-02T11:28:34Z</time>
      </trkpt>
      <trkpt lat="47.52444" lon="-1.40822">
        <ele>33</ele>
        <time>2023-11-02T11:31:27Z</time>
      </trkpt>
      <trkpt lat="47.52389" lon="-1.40749">
        <ele>34</ele>
        <time>2023-11-02T11:33:06Z</time>
      </trkpt>
      <trkpt lat="47.52302" lon="-1.40788">
        <ele>34</ele>
        <time>2023-11-02T11:35:07Z</time>
      </trkpt>
      <trkpt lat="47.52323" lon="-1.40633">
        <ele>32</ele>
        <time>2023-11-02T11:37:30Z</time>
      </trkpt>
      <trkpt lat="47.52302" lon="-1.40462">
        <ele>33</ele>
        <time>2023-11-02T11:40:06Z</time>
      </trkpt>
      <trkpt lat="47.52331" lon="-1.40256">
        <ele>34</ele>
        <time>2023-11-02T11:43:16Z</time>
      </trkpt>
      <trkpt lat="47.52317" lon="-1.40075">
        <ele>33</ele>
        <time>2023-11-02T11:46:00Z</time>
      </trkpt>
      <trkpt lat="47.52224" lon="-1.40067">
        <ele>34</ele>
        <time>2023-11-02T11:48:04Z</time>
      </trkpt>
      <trkpt lat="47.52276" lon="-1.39715">
        <ele>33</ele>
        <time>2023-11-02T11:53:29Z</time>
      </trkpt>
      <trkpt lat="47.5223" lon="-1.39603">
        <ele>34</ele>
        <time>2023-11-02T11:55:27Z</time>
      </trkpt>
      <trkpt lat="47.52198" lon="-1.39513">
        <ele>33</ele>
        <time>2023-11-02T11:56:59Z</time>
      </trkpt>
      <trkpt lat="47.52215" lon="-1.3944">
        <ele>33</ele>
        <time>2023-11-02T11:58:09Z</time>
      </trkpt>
      <trkpt lat="47.523" lon="-1.39406">
        <ele>32</ele>
        <time>2023-11-02T12:00:06Z</time>
      </trkpt>
      <trkpt lat="47.52349" lon="-1.39286">
        <ele>34</ele>
        <time>2023-11-02T12:02:12Z</time>
      </trkpt>
      <trkpt lat="47.52447" lon="-1.39178">
        <ele>37</ele>
        <time>2023-11-02T12:04:55Z</time>
      </trkpt>
      <trkpt lat="47.52508" lon="-1.38771">
        <ele>38</ele>
        <time>2023-11-02T12:11:11Z</time>
      </trkpt>
      <trkpt lat="47.52569" lon="-1.38668">
        <ele>40</ele>
        <time>2023-11-02T12:13:15Z</time>
      </trkpt>
      <trkpt lat="47.5256" lon="-1.38616">
        <ele>39</ele>
        <time>2023-11-02T12:14:03Z</time>
      </trkpt>
      <trkpt lat="47.52439" lon="-1.38526">
        <ele>37</ele>
        <time>2023-11-02T12:17:04Z</time>
      </trkpt>
      <trkpt lat="47.52389" lon="-1.37415">
        <ele>41</ele>
        <time>2023-11-02T12:33:47Z</time>
      </trkpt>
      <trkpt lat="47.52094" lon="-1.37277">
        <ele>34</ele>
        <time>2023-11-02T12:40:40Z</time>
      </trkpt>
      <trkpt lat="47.52091" lon="-1.37123">
        <ele>33</ele>
        <time>2023-11-02T12:42:59Z</time>
      </trkpt>
      <trkpt lat="47.5212" lon="-1.36925">
        <ele>29</ele>
        <time>2023-11-02T12:46:01Z</time>
      </trkpt>
      <trkpt lat="47.52117" lon="-1.36685">
        <ele>29</ele>
        <time>2023-11-02T12:49:38Z</time>
      </trkpt>
      <trkpt lat="47.52175" lon="-1.36513">
        <ele>33</ele>
        <time>2023-11-02T12:52:31Z</time>
      </trkpt>
      <trkpt lat="47.52123" lon="-1.36372">
        <ele>30</ele>
        <time>2023-11-02T12:54:56Z</time>
      </trkpt>
      <trkpt lat="47.52123" lon="-1.36144">
        <ele>30</ele>
        <time>2023-11-02T12:58:21Z</time>
      </trkpt>
      <trkpt lat="47.52178" lon="-1.35908">
        <ele>29</ele>
        <time>2023-11-02T13:02:06Z</time>
      </trkpt>
      <trkpt lat="47.52276" lon="-1.3581">
        <ele>32</ele>
        <time>2023-11-02T13:04:44Z</time>
      </trkpt>
      <trkpt lat="47.52279" lon="-1.35664">
        <ele>33</ele>
        <time>2023-11-02T13:06:55Z</time>
      </trkpt>
      <trkpt lat="47.52172" lon="-1.35518">
        <ele>30</ele>
        <time>2023-11-02T13:10:10Z</time>
      </trkpt>
      <trkpt lat="47.52271" lon="-1.35187">
        <ele>30</ele>
        <time>2023-11-02T13:15:36Z</time>
      </trkpt>
      <trkpt lat="47.52328" lon="-1.34874">
        <ele>29</ele>
        <time>2023-11-02T13:20:28Z</time>
      </trkpt>
      <trkpt lat="47.52502" lon="-1.34677">
        <ele>32</ele>
        <time>2023-11-02T13:25:20Z</time>
      </trkpt>
      <trkpt lat="47.52384" lon="-1.34539">
        <ele>32</ele>
        <time>2023-11-02T13:28:41Z</time>
      </trkpt>
      <trkpt lat="47.52453" lon="-1.34196">
        <ele>33</ele>
        <time>2023-11-02T13:34:03Z</time>
      </trkpt>
      <trkpt lat="47.52442" lon="-1.34114">
        <ele>33</ele>
        <time>2023-11-02T13:35:19Z</time>
      </trkpt>
      <trkpt lat="47.52517" lon="-1.33848">
        <ele>32</ele>
        <time>2023-11-02T13:39:39Z</time>
      </trkpt>
      <trkpt lat="47.52555" lon="-1.33827">
        <ele>31</ele>
        <time>2023-11-02T13:40:33Z</time>
      </trkpt>
      <trkpt lat="47.52589" lon="-1.33741">
        <ele>32</ele>
        <time>2023-11-02T13:42:02Z</time>
      </trkpt>
      <trkpt lat="47.52502" lon="-1.33462">
        <ele>32</ele>
        <time>2023-11-02T13:46:39Z</time>
      </trkpt>
      <trkpt lat="47.52601" lon="-1.33106">
        <ele>33</ele>
        <time>2023-11-02T13:52:26Z</time>
      </trkpt>
      <trkpt lat="47.52459" lon="-1.3299">
        <ele>32</ele>
        <time>2023-11-02T13:56:03Z</time>
      </trkpt>
      <trkpt lat="47.52531" lon="-1.32634">
        <ele>32</ele>
        <time>2023-11-02T14:01:38Z</time>
      </trkpt>
      <trkpt lat="47.52514" lon="-1.32492">
        <ele>32</ele>
        <time>2023-11-02T14:03:48Z</time>
      </trkpt>
      <trkpt lat="47.52601" lon="-1.32303">
        <ele>31</ele>
        <time>2023-11-02T14:07:14Z</time>
      </trkpt>
      <trkpt lat="47.5272" lon="-1.32252">
        <ele>32</ele>
        <time>2023-11-02T14:09:59Z</time>
      </trkpt>
      <trkpt lat="47.52812" lon="-1.32016">
        <ele>32</ele>
        <time>2023-11-02T14:14:05Z</time>
      </trkpt>
      <trkpt lat="47.53047" lon="-1.32527">
        <ele>33</ele>
        <time>2023-11-02T14:23:22Z</time>
      </trkpt>
      <trkpt lat="47.52969" lon="-1.326">
        <ele>32</ele>
        <time>2023-11-02T14:25:25Z</time>
      </trkpt>
      <trkpt lat="47.52949" lon="-1.32818">
        <ele>33</ele>
        <time>2023-11-02T14:28:43Z</time>
      </trkpt>
      <trkpt lat="47.52894" lon="-1.33007">
        <ele>32</ele>
        <time>2023-11-02T14:31:48Z</time>
      </trkpt>
      <trkpt lat="47.52923" lon="-1.33084">
        <ele>33</ele>
        <time>2023-11-02T14:33:08Z</time>
      </trkpt>
      <trkpt lat="47.52856" lon="-1.3329">
        <ele>32</ele>
        <time>2023-11-02T14:36:34Z</time>
      </trkpt>
      <trkpt lat="47.5287" lon="-1.33591">
        <ele>33</ele>
        <time>2023-11-02T14:41:06Z</time>
      </trkpt>
      <trkpt lat="47.52882" lon="-1.33883">
        <ele>39</ele>
        <time>2023-11-02T14:45:29Z</time>
      </trkpt>
      <trkpt lat="47.5283" lon="-1.34166">
        <ele>35</ele>
        <time>2023-11-02T14:49:54Z</time>
      </trkpt>
      <trkpt lat="47.52862" lon="-1.34247">
        <ele>36</ele>
        <time>2023-11-02T14:51:18Z</time>
      </trkpt>
      <trkpt lat="47.52775" lon="-1.34449">
        <ele>36</ele>
        <time>2023-11-02T14:54:54Z</time>
      </trkpt>
      <trkpt lat="47.53308" lon="-1.34484">
        <ele>49</ele>
        <time>2023-11-02T15:06:46Z</time>
      </trkpt>
      <trkpt lat="47.53276" lon="-1.34728">
        <ele>49</ele>
        <time>2023-11-02T15:10:30Z</time>
      </trkpt>
      <trkpt lat="47.53256" lon="-1.3496">
        <ele>46</ele>
        <time>2023-11-02T15:14:01Z</time>
      </trkpt>
      <trkpt lat="47.53227" lon="-1.35144">
        <ele>48</ele>
        <time>2023-11-02T15:16:51Z</time>
      </trkpt>
      <trkpt lat="47.53383" lon="-1.35282">
        <ele>57</ele>
        <time>2023-11-02T15:20:53Z</time>
      </trkpt>
      <trkpt lat="47.53421" lon="-1.35483">
        <ele>64</ele>
        <time>2023-11-02T15:24:02Z</time>
      </trkpt>
      <trkpt lat="47.53453" lon="-1.35569">
        <ele>66</ele>
        <time>2023-11-02T15:25:30Z</time>
      </trkpt>
      <trkpt lat="47.53366" lon="-1.35754">
        <ele>68</ele>
        <time>2023-11-02T15:28:53Z</time>
      </trkpt>
      <trkpt lat="47.53241" lon="-1.35865">
        <ele>59</ele>
        <time>2023-11-02T15:32:08Z</time>
      </trkpt>
      <trkpt lat="47.53233" lon="-1.35934">
        <ele>57</ele>
        <time>2023-11-02T15:33:11Z</time>
      </trkpt>
      <trkpt lat="47.52989" lon="-1.36539">
        <ele>52</ele>
        <time>2023-11-02T15:43:46Z</time>
      </trkpt>
      <trkpt lat="47.53033" lon="-1.36852">
        <ele>50</ele>
        <time>2023-11-02T15:48:34Z</time>
      </trkpt>
      <trkpt lat="47.53105" lon="-1.37213">
        <ele>47</ele>
        <time>2023-11-02T15:54:13Z</time>
      </trkpt>
      <trkpt lat="47.53085" lon="-1.3796">
        <ele>39</ele>
        <time>2023-11-02T16:05:26Z</time>
      </trkpt>
      <trkpt lat="47.53192" lon="-1.38131">
        <ele>40</ele>
        <time>2023-11-02T16:08:57Z</time>
      </trkpt>
      <trkpt lat="47.53227" lon="-1.38316">
        <ele>41</ele>
        <time>2023-11-02T16:11:50Z</time>
      </trkpt>
      <trkpt lat="47.53224" lon="-1.38629">
        <ele>46</ele>
        <time>2023-11-02T16:16:32Z</time>
      </trkpt>
      <trkpt lat="47.52995" lon="-1.38556">
        <ele>55</ele>
        <time>2023-11-02T16:21:44Z</time>
      </trkpt>
      <trkpt lat="47.52986" lon="-1.38612">
        <ele>56</ele>
        <time>2023-11-02T16:22:36Z</time>
      </trkpt>
      <trkpt lat="47.5287" lon="-1.38698">
        <ele>55</ele>
        <time>2023-11-02T16:25:29Z</time>
      </trkpt>
      <trkpt lat="47.52949" lon="-1.38972">
        <ele>59</ele>
        <time>2023-11-02T16:29:58Z</time>
      </trkpt>
      <trkpt lat="47.52954" lon="-1.39376">
        <ele>64</ele>
        <time>2023-11-02T16:36:02Z</time>
      </trkpt>
      <trkpt lat="47.53053" lon="-1.39603">
        <ele>62</ele>
        <time>2023-11-02T16:40:05Z</time>
      </trkpt>
      <trkpt lat="47.52963" lon="-1.39728">
        <ele>65</ele>
        <time>2023-11-02T16:42:50Z</time>
      </trkpt>
      <trkpt lat="47.5292" lon="-1.39904">
        <ele>55</ele>
        <time>2023-11-02T16:45:39Z</time>
      </trkpt>
      <trkpt lat="47.52954" lon="-1.40024">
        <ele>56</ele>
        <time>2023-11-02T16:47:36Z</time>
      </trkpt>
      <trkpt lat="47.52902" lon="-1.40058">
        <ele>51</ele>
        <time>2023-11-02T16:48:52Z</time>
      </trkpt>
      <trkpt lat="47.52865" lon="-1.40264">
        <ele>50</ele>
        <time>2023-11-02T16:52:04Z</time>
      </trkpt>
      <trkpt lat="47.5287" lon="-1.40586">
        <ele>52</ele>
        <time>2023-11-02T16:56:54Z</time>
      </trkpt>
      <trkpt lat="47.52853" lon="-1.40749">
        <ele>50</ele>
        <time>2023-11-02T16:59:23Z</time>
      </trkpt>
      <trkpt lat="47.5287" lon="-1.40869">
        <ele>55</ele>
        <time>2023-11-02T17:01:13Z</time>
      </trkpt>
      <trkpt lat="47.5307" lon="-1.41509">
        <ele>58</ele>
        <time>2023-11-02T17:11:49Z</time>
      </trkpt>
      <trkpt lat="47.53134" lon="-1.4174">
        <ele>55</ele>
        <time>2023-11-02T17:15:34Z</time>
      </trkpt>
      <trkpt lat="47.53149" lon="-1.42037">
        <ele>40</ele>
        <time>2023-11-02T17:20:02Z</time>
      </trkpt>
      <trkpt lat="47.5327" lon="-1.42049">
        <ele>45</ele>
        <time>2023-11-02T17:22:44Z</time>
      </trkpt>
      <trkpt lat="47.5334" lon="-1.42165">
        <ele>44</ele>
        <time>2023-11-02T17:25:04Z</time>
      </trkpt>
      <trkpt lat="47.53406" lon="-1.4217">
        <ele>46</ele>
        <time>2023-11-02T17:26:32Z</time>
      </trkpt>
      <trkpt lat="47.53372" lon="-1.42401">
        <ele>48</ele>
        <time>2023-11-02T17:30:05Z</time>
      </trkpt>
      <trkpt lat="47.53409" lon="-1.42702">
        <ele>60</ele>
        <time>2023-11-02T17:34:41Z</time>
      </trkpt>
      <trkpt lat="47.53435" lon="-1.42994">
        <ele>56</ele>
        <time>2023-11-02T17:39:06Z</time>
      </trkpt>
      <trkpt lat="47.53279" lon="-1.42998">
        <ele>52</ele>
        <time>2023-11-02T17:42:34Z</time>
      </trkpt>
      <trkpt lat="47.5312" lon="-1.43114">
        <ele>47</ele>
        <time>2023-11-02T17:46:31Z</time>
      </trkpt>
      <trkpt lat="47.53091" lon="-1.43449">
        <ele>37</ele>
        <time>2023-11-02T17:51:35Z</time>
      </trkpt>
      <trkpt lat="47.53128" lon="-1.4368">
        <ele>40</ele>
        <time>2023-11-02T17:55:09Z</time>
      </trkpt>
      <trkpt lat="47.52981" lon="-1.43805">
        <ele>35</ele>
        <time>2023-11-02T17:58:55Z</time>
      </trkpt>
      <trkpt lat="47.52679" lon="-1.44354">
        <ele>33</ele>
        <time>2023-11-02T18:09:33Z</time>
      </trkpt>
      <trkpt lat="47.52372" lon="-1.44328">
        <ele>34</ele>
        <time>2023-11-02T18:16:24Z</time>
      </trkpt>
      <trkpt lat="47.52369" lon="-1.43603">
        <ele>35</ele>
        <time>2023-11-02T18:27:17Z</time>
      </trkpt>
      <trkpt lat="47.52355" lon="-1.43474">
        <ele>35</ele>
        <time>2023-11-02T18:29:15Z</time>
      </trkpt>
      <trkpt lat="47.52357" lon="-1.43337">
        <ele>34</ele>
        <time>2023-11-02T18:31:18Z</time>
      </trkpt>
      <trkpt lat="47.52305" lon="-1.43195">
        <ele>35</ele>
        <time>2023-11-02T18:33:44Z</time>
      </trkpt>
      <trkpt lat="47.52297" lon="-1.43105">
        <ele>33</ele>
        <time>2023-11-02T18:35:06Z</time>
      </trkpt>
      <trkpt lat="47.51923" lon="-1.43028">
        <ele>34</ele>
        <time>2023-11-02T18:43:29Z</time>
      </trkpt>
      <trkpt lat="47.51865" lon="-1.43019">
        <ele>34</ele>
        <time>2023-11-02T18:44:47Z</time>
      </trkpt>
    </trkseg>
  </trk>
</gpx>